Wind_Speed
7 16 14 12 12 12 13 15 22 27 28 29 29 27 25 23 19 16 13 13 12 11 10 9 10 10 10 11 13 14 17 16 23 11 21 11 7 17 17 34 17 28 22
8 9 16 15 14 14 13 16 18 22 26 26 25 26 26 21 19 16 15 13 12 12 12 11 11 11 10 12 13 15 15 10 19 12 8 4 7 7 37 15 27 19 24
14 9 10 19 17 20 22 23 24 27 28 27 26 27 25 22 19 15 14 12 12 12 12 12 11 11 11 13 13 14 15 14 16 19 5 4 3 13 6 29 16 24 32
10 10 12 18 20 18 21 24 26 28 28 27 29 28 25 21 16 14 12 10 10 12 11 12 11 11 12 12 12 13 14 15 16 19 9 11 14 3 6 6 29 20 26
18 15 14 22 22 21 22 23 23 24 25 25 25 25 23 19 17 15 13 9 8 10 11 10 9 10 11 12 12 13 16 16 13 16 20 21 20 16 4 11 9 25 25
14 13 20 27 25 24 26 27 28 26 26 26 24 23 22 20 17 13 11 8 6 9 11 11 10 10 11 12 13 14 16 16 17 17 17 18 12 13 11 12 12 16 24
17 16 16 16 23 25 26 26 27 26 26 26 23 21 19 17 14 11 8 6 6 9 11 11 11 11 12 12 14 16 17 19 19 20 23 23 21 23 22 19 16 12 25
16 16 15 18 22 25 24 26 27 26 23 22 21 19 17 15 13 10 8 7 8 7 9 9 10 12 13 14 16 18 19 20 21 23 22 20 26 28 26 22 18 15 15
16 16 14 21 24 25 27 27 26 24 22 21 20 18 16 14 12 9 8 7 6 7 9 10 12 14 15 16 18 19 21 22 22 24 20 25 27 27 28 28 24 17 15
15 14 14 20 24 28 28 26 24 24 22 20 18 17 15 12 9 7 8 7 6 7 9 12 14 16 17 18 20 22 23 21 25 19 24 26 26 26 26 26 24 24 21
16 15 14 21 26 29 29 26 24 24 21 19 17 16 13 10 7 7 6 7 7 9 11 13 15 17 19 22 22 22 21 24 18 24 24 25 26 26 26 27 25 25 21
15 14 14 21 23 26 28 28 24 22 20 18 16 14 11 8 6 5 6 6 8 10 12 14 17 19 22 23 23 24 26 19 25 26 25 26 26 27 27 26 27 24 28
15 15 14 13 20 23 27 26 24 22 20 17 15 12 9 6 5 4 5 7 9 12 14 16 19 21 24 24 25 24 21 26 25 21 24 27 27 27 28 28 28 28 28
18 15 14 13 20 24 27 27 25 21 19 17 13 10 7 5 4 4 6 8 11 14 16 19 20 22 24 25 23 25 28 26 23 24 27 28 27 28 29 30 28 26 28
16 16 15 13 18 22 26 28 25 22 19 15 12 8 5 3 3 5 7 10 12 15 17 19 21 23 25 22 27 27 26 25 25 27 27 26 25 29 30 30 32 34 31
14 14 15 14 17 22 25 28 25 20 17 14 10 7 4 3 4 6 9 12 14 17 19 21 23 25 25 25 26 26 28 27 28 27 27 27 27 28 31 34 36 35 35
16 17 16 15 20 24 30 29 25 20 16 13 9 5 3 2 4 7 10 13 16 18 20 23 24 25 27 25 27 27 29 29 29 28 28 28 27 29 30 36 36 35 35
16 15 12 18 22 29 30 29 23 20 15 11 8 4 2 3 6 9 11 14 17 19 22 24 25 26 28 25 26 28 27 25 25 27 27 28 29 29 36 38 35 32 26
11 12 20 26 28 31 31 27 22 17 13 10 6 3 2 4 7 10 14 16 19 21 23 25 26 27 26 26 26 26 27 26 26 26 25 29 31 34 39 38 31 28 24
19 22 25 28 31 30 29 26 20 16 12 8 4 2 2 5 9 12 15 17 20 22 24 25 24 23 25 24 25 25 25 25 27 27 26 28 33 38 38 37 31 25 32
23 26 25 24 28 28 25 22 17 14 10 6 3 1 3 7 10 13 16 20 21 23 24 24 26 24 21 24 25 26 26 25 26 26 29 30 37 35 38 36 31 32 36
18 23 23 22 25 23 22 19 16 11 7 5 2 2 5 8 10 14 18 20 21 22 26 28 24 21 22 22 25 27 28 28 28 27 30 34 32 37 36 33 31 34 33
18 20 23 24 21 19 18 18 13 10 7 4 2 3 6 9 12 17 19 20 22 25 25 21 20 20 23 25 25 27 27 30 31 29 33 30 34 32 29 30 31 31 28
16 21 23 20 18 15 15 14 12 8 6 3 2 5 8 12 16 17 18 19 23 25 19 19 20 22 23 23 26 27 29 29 27 28 24 29 29 27 28 29 28 27 26
18 21 19 19 18 17 15 12 9 7 5 2 4 8 11 13 16 17 18 19 19 19 22 22 22 23 24 26 32 33 33 33 32 34 26 26 26 26 26 27 27 28 28
20 19 19 19 17 15 13 10 7 5 3 4 8 10 12 15 16 20 24 21 17 19 19 20 22 25 25 29 31 32 32 33 32 25 23 23 24 24 26 26 28 28 29
Wind_Direction
163 135 129 130 139 138 144 143 133 134 135 130 124 117 110 110 107 107 111 106 99 90 77 60 43 35 29 18 12 6 2 0 1 348 335 328 315 322 338 333 334 331 333
150 140 134 125 117 135 148 145 139 135 133 132 128 125 118 111 113 113 104 98 89 77 63 49 41 31 24 21 21 18 7 350 6 354 320 335 318 343 325 331 326 325 329
159 150 132 123 116 111 118 126 135 135 133 133 128 123 121 119 117 110 101 85 73 62 53 46 36 30 22 22 21 16 16 360 353 3 34 347 319 325 327 321 319 322 324
144 140 130 120 120 117 121 125 126 128 134 139 136 136 135 129 125 118 104 87 63 51 43 38 32 25 19 18 17 8 10 359 352 357 348 335 314 309 317 337 310 316 313
153 146 131 126 125 124 121 122 127 131 133 137 139 135 127 125 124 118 110 89 56 36 35 36 32 23 16 13 8 2 359 358 348 341 332 327 323 309 268 303 313 305 309
141 130 123 124 124 125 122 122 121 122 130 133 136 133 128 124 119 113 105 94 58 34 31 26 23 16 9 5 360 353 351 351 341 336 333 326 315 313 315 307 309 305 306
142 137 132 128 132 133 129 125 124 118 125 128 129 129 125 122 115 113 105 81 46 33 23 15 13 7 1 357 350 347 347 344 339 335 329 324 320 321 307 304 304 301 306
145 141 138 135 140 141 137 133 128 124 130 131 125 124 122 117 112 107 90 68 44 28 5 4 1 357 355 351 346 343 341 338 332 330 329 329 325 320 310 300 304 306 304
148 144 140 144 149 148 144 140 135 132 131 129 129 124 121 118 108 96 78 58 34 15 1 355 350 351 349 346 342 339 338 335 334 332 328 327 324 317 313 307 299 293 307
145 145 144 146 151 151 146 142 141 138 136 134 129 124 118 111 99 81 60 39 24 2 353 347 345 344 342 342 340 338 336 335 331 331 328 329 320 312 307 305 306 296 288
150 147 146 146 150 151 148 146 145 141 139 138 133 126 116 108 93 65 45 24 4 352 346 343 340 339 338 339 337 335 333 329 329 328 327 323 319 312 310 306 299 291 286
147 144 144 142 146 148 151 151 147 145 144 142 134 124 120 110 82 51 24 5 355 347 343 339 336 336 336 335 333 330 330 326 328 328 325 320 318 313 308 303 298 294 293
144 144 144 147 148 148 152 153 150 147 147 144 137 129 117 99 69 33 10 358 346 342 339 337 337 335 333 331 330 327 325 324 323 322 325 323 315 309 306 303 301 299 299
154 150 149 151 152 154 156 155 150 149 148 145 139 127 112 87 54 18 360 350 342 339 338 338 335 331 332 332 329 325 321 320 319 324 324 320 310 305 308 309 307 310 306
156 157 154 153 153 151 153 154 150 150 151 146 138 125 113 76 34 9 353 343 341 338 335 333 333 333 334 330 324 322 321 320 320 320 319 313 311 313 311 311 314 308 302
155 153 154 155 155 151 149 151 151 150 152 145 137 130 110 56 14 352 347 342 338 335 333 334 335 334 329 325 326 324 320 319 317 314 311 308 308 308 309 309 307 304 306
158 161 161 158 154 150 151 149 149 149 149 145 138 127 91 34 355 347 342 338 336 333 334 337 335 329 330 331 327 325 320 318 315 316 311 308 307 308 307 305 306 303 299
155 153 148 144 143 146 150 147 146 149 148 143 140 129 69 2 346 340 336 336 334 335 336 335 333 334 334 329 327 326 324 326 323 319 317 311 312 313 312 310 309 302 308
137 130 135 134 136 141 146 146 146 146 144 144 145 124 22 349 336 335 335 334 335 335 335 335 336 335 334 334 331 329 332 324 321 319 318 318 315 315 315 315 316 320 315
108 112 116 122 129 138 147 144 143 144 145 148 139 102 2 333 333 334 331 335 337 333 334 332 333 335 332 334 333 333 328 323 320 319 318 318 318 316 316 324 324 322 316
104 108 114 120 134 145 146 139 141 143 144 141 123 63 346 338 337 333 338 337 335 332 329 330 333 331 327 328 333 333 330 323 318 318 319 317 316 319 327 325 328 313 320
102 111 112 120 139 143 140 138 140 143 140 129 105 16 347 340 339 341 341 339 334 329 332 331 327 322 320 323 327 329 327 323 324 321 319 315 324 327 325 325 322 324 325
110 113 117 121 132 142 148 141 141 144 137 123 75 354 343 349 350 346 342 336 337 338 335 327 320 321 324 323 323 322 324 331 329 324 320 326 327 327 326 324 326 325 318
119 125 125 122 124 139 143 138 140 139 133 120 29 358 357 352 349 346 345 339 339 338 331 326 326 323 324 327 325 330 332 332 330 326 331 330 328 326 323 322 323 322 318
130 138 137 137 134 134 134 137 140 143 134 97 20 6 356 347 342 345 343 338 339 335 329 326 327 327 328 327 330 333 332 332 333 333 333 329 327 325 324 325 324 323 322
142 140 143 143 143 142 139 142 142 138 105 37 10 356 341 340 344 342 342 347 336 328 326 326 328 327 323 326 330 330 332 333 332 335 329 324 323 322 322 323 322 323 323
Height
735 735 738 740 743 746 746 748 749 750 750 754 758 763 768 772 776 779 781 782 783 783 783 783 783 782 780 780 778 776 774 771 768 763 759 754 752 751 750 749 747 746 744
736 735 737 740 744 746 747 748 750 751 751 756 761 765 770 775 778 782 783 784 784 784 784 783 783 782 781 779 778 776 774 772 771 768 762 758 752 748 750 747 746 744 741
731 735 737 740 744 747 749 750 752 752 755 759 763 768 773 777 781 784 785 786 785 784 784 783 783 782 781 779 778 777 776 773 771 769 769 767 764 755 746 746 744 742 741
729 732 733 738 743 748 751 753 753 755 758 761 765 769 772 777 782 785 786 786 786 785 784 783 783 782 781 780 779 778 776 774 771 769 769 770 769 763 750 745 744 741 739
722 728 731 735 743 748 752 753 755 758 761 764 768 771 775 779 782 785 787 787 786 786 785 784 783 782 781 780 779 777 775 773 772 771 767 765 762 760 757 744 741 739 736
724 728 731 736 743 749 752 755 757 760 763 766 770 772 776 779 782 785 787 787 787 786 785 784 782 781 780 779 778 776 774 772 771 769 767 765 763 758 754 745 737 734 731
721 727 731 737 744 749 752 756 758 762 765 768 772 774 776 779 782 785 786 787 786 785 784 783 782 781 780 778 777 774 772 770 768 767 764 762 759 757 753 747 735 728 725
719 725 730 736 744 750 753 756 760 764 767 770 773 775 777 780 783 785 785 786 786 785 784 783 782 781 779 776 775 773 771 769 766 764 761 758 756 753 750 745 738 722 718
718 723 730 736 743 749 753 757 761 766 769 772 774 776 779 781 783 785 784 785 785 784 783 783 781 779 777 775 773 771 768 766 763 760 758 755 752 749 745 741 738 731 715
718 724 730 736 744 750 754 758 763 766 770 773 775 777 779 781 783 784 783 784 784 783 782 781 780 778 776 774 771 768 765 762 760 757 754 751 748 744 740 736 732 729 722
714 722 730 736 744 750 754 758 763 766 770 773 776 778 779 781 783 783 783 783 783 782 781 780 778 776 773 771 768 765 762 759 756 753 750 747 744 739 735 731 727 722 718
713 721 728 736 744 749 754 759 763 766 770 774 776 778 780 781 781 782 782 782 781 781 780 778 776 773 771 768 765 761 758 755 752 749 747 743 739 734 730 725 720 715 710
714 721 729 736 743 749 754 758 763 767 771 774 776 778 779 780 781 781 781 781 780 779 778 776 774 771 768 764 761 757 755 752 748 745 742 739 734 729 724 719 714 708 702
711 719 728 735 741 747 753 758 763 767 771 774 776 778 779 780 780 780 780 779 778 777 776 773 771 768 764 760 757 754 750 747 743 740 738 734 730 724 719 713 708 702 696
711 718 726 733 740 746 752 758 763 767 771 774 776 778 779 780 780 779 778 778 777 775 773 770 768 764 761 758 754 750 746 742 738 735 733 729 725 720 715 708 702 697 689
710 718 725 731 738 744 750 757 762 767 770 774 776 778 779 779 779 778 778 776 775 773 771 768 764 761 759 755 751 747 742 737 733 729 726 722 719 713 708 703 697 690 682
707 714 721 728 735 742 748 756 761 767 770 773 776 777 778 778 778 777 776 775 773 771 768 765 762 759 755 751 747 743 738 733 729 724 720 715 711 707 701 693 687 682 676
703 711 719 728 735 742 749 756 762 766 770 774 776 777 777 777 777 776 775 774 771 769 766 763 760 756 752 749 744 739 734 729 725 721 716 711 705 701 694 686 678 671 667
702 710 718 726 735 743 750 757 763 767 771 774 775 776 776 776 776 775 773 772 769 765 763 760 756 753 750 746 741 736 731 725 720 716 712 708 701 695 687 678 669 665 659
707 714 723 730 738 747 752 758 764 768 771 773 774 775 775 775 775 773 771 769 766 763 760 757 755 751 747 743 739 734 729 722 716 711 706 702 696 687 680 672 666 660 653
716 722 729 736 743 749 754 760 765 768 771 773 774 775 775 775 773 771 769 766 763 760 758 754 751 748 744 739 735 730 725 720 712 706 700 695 688 680 674 668 663 656 647
725 729 735 742 748 752 756 761 765 769 771 773 774 774 774 773 772 769 766 763 761 758 753 749 745 743 739 736 731 726 721 716 710 702 696 689 681 676 670 665 658 651 644
730 735 739 745 751 755 758 762 767 769 771 772 773 773 773 772 769 767 765 762 759 754 749 746 742 738 734 730 725 720 715 710 705 700 692 685 679 673 667 661 655 648 641
734 739 744 749 754 758 761 764 767 769 771 772 772 772 771 769 767 766 763 760 756 752 748 745 740 735 731 726 721 715 710 705 700 694 688 683 677 672 665 657 651 645 639
739 743 747 751 756 759 762 765 767 769 770 771 771 769 768 767 765 763 761 758 755 753 748 744 740 734 727 723 719 713 707 702 697 690 685 679 674 667 660 654 647 641 634
741 745 749 753 757 760 763 765 767 769 769 769 768 767 766 765 763 761 757 755 753 751 748 744 739 733 729 723 716 711 706 700 694 689 685 678 672 665 658 651 643 637 631